Flag for Finland Weather past 2 weeks in Helsinki, Finland

Now
30 °F

Ice fog.


Feels Like: 30 °F
Forecast: 46 / 55 °F
Wind: No wind

Location: Helsinki Malmi Airport

Current Time: Oct 2, 2014 at 5:43:16 AM

Latest Report: Oct 2, 2014 at 4:50 AM


Visibility: 0 mi

Pressure: 30.45 "Hg

Humidity: 93%

Dew point: 28 °F

Location of HelsinkiLocation

Historic Weather in Helsinki — Graph

°F

Helsinki temperature yesterday

Maximum temperature yesterday: 52 °F (at 1:50 PM)
Minimum temperature yesterday: 28 °F (at 7:50 AM)
Average temperature yesterday: 40 °F

Past Weeks' High & Low Weather Summary

 TemperatureHumidityPressure
High64 °F (Sep 18, 2:50 PM)100% (Sep 17, 5:20 AM)30.51 "Hg (Sep 17, 5:20 AM)
Low28 °F (Oct 1, 7:50 AM)43% (Sep 24, 5:20 PM)29.42 "Hg (Sep 27, 1:20 AM)
Average49 °F82%29.92 "Hg
* Reported Sep 17 4:20 AM — Oct 2 4:20 AM, Helsinki, Weather by CustomWeather, © 2014

Note: Actual official high and low records may vary slightly from our data, if they occured in-between our weather recording intervals... More about our weather records

Advertising

Helsinki weather history for previous 24 hours

 ConditionsComfort  
Time TempWeatherWind HumidityBarometerVisibility
4:20 AM
Oct 2
30 °FIce fog.No wind100%30.45 "Hg1 mi
3:50 AM30 °FIce fog.No wind100%30.45 "Hg1 mi
3:20 AM30 °FIce fog.No wind100%30.45 "Hg1 mi
2:50 AM32 °FIce fog.No wind100%30.48 "Hg6 mi
2:20 AM30 °FIce fog.No wind100%30.48 "Hg4 mi
1:50 AM30 °FFog.No wind100%30.48 "Hg1 mi
1:20 AM32 °FIce fog.No wind100%30.48 "Hg0 mi
12:50 AM30 °FIce fog.No wind100%30.48 "Hg1 mi
12:20 AM32 °FIce fog.No wind100%30.48 "Hg0 mi
11:50 PM
Oct 1
32 °FIce fog.No wind100%30.48 "Hg4 mi
11:20 PM34 °FIce fog.No wind93%30.48 "Hg0 mi
10:50 PM34 °FIce fog.No wind100%30.48 "Hg0 mi
10:20 PM34 °FClear.No wind100%30.48 "Hg10 mi
9:50 PM36 °FClear.No wind93%30.48 "Hg6 mi
9:20 PM37 °FClear.No wind93%30.48 "Hg4 mi
8:50 PM37 °FClear.1 mph100%30.48 "Hg10 mi
8:20 PM39 °FClear.No wind93%30.48 "Hg10 mi
7:50 PM41 °FSunny.No wind87%30.48 "Hg10 mi
7:20 PM43 °FSunny.1 mph81%30.48 "Hg10 mi
6:50 PM48 °FSunny.3 mph66%30.48 "Hg10 mi
6:20 PM48 °FSunny.5 mph66%30.48 "Hg10 mi
5:50 PM50 °FPassing clouds.6 mph62%30.48 "HgN/A
5:20 PM50 °FPassing clouds.7 mph62%30.48 "HgN/A
4:50 PM50 °FPassing clouds.7 mph58%30.48 "HgN/A
4:20 PM50 °FPassing clouds.7 mph58%30.48 "HgN/A
3:50 PM50 °FPartly sunny.8 mph58%30.48 "HgN/A
3:20 PM50 °FPartly sunny.7 mph58%30.48 "HgN/A
2:50 PM52 °FPartly sunny.5 mph54%30.51 "HgN/A
2:20 PM52 °FPartly sunny.No wind50%30.51 "HgN/A
1:50 PM52 °FPartly sunny.1 mph50%30.51 "HgN/A
1:20 PM50 °FPassing clouds.3 mph58%30.51 "HgN/A
12:50 PM50 °FPassing clouds.1 mph58%30.51 "HgN/A
12:20 PM50 °FSunny.1 mph58%30.51 "Hg10 mi
11:50 AM48 °FSunny.2 mph66%30.51 "Hg10 mi
11:20 AM46 °FSunny.1 mph76%30.51 "Hg10 mi
10:50 AM45 °FSunny.2 mph76%30.51 "Hg10 mi
10:20 AM43 °FSunny.2 mph81%30.51 "Hg10 mi
9:50 AM39 °FSunny.3 mph93%30.51 "Hg10 mi
9:20 AM36 °FSunny.2 mph100%30.48 "Hg10 mi
8:50 AM32 °FSunny.No wind100%30.48 "Hg10 mi
8:20 AM30 °FClear.No wind100%30.48 "Hg10 mi
7:50 AM28 °FIce fog.No wind100%30.48 "Hg1 mi
7:20 AM30 °FIce fog.No wind93%30.48 "Hg1 mi
6:50 AM30 °FLight freezing rain. Clear.No wind100%30.45 "Hg1 mi
6:20 AM30 °FIce fog.No wind100%30.45 "Hg1 mi
5:50 AM30 °FIce fog.No wind100%30.45 "Hg0 mi
5:20 AM30 °FIce fog.No wind100%30.45 "Hg0 mi
Weather by CustomWeather, © 2014

See weather overviewHow to use our weather pages